KI4AMD-13 Weather Reports


Display with metric or nautical units.
time (UTC)temp
F
wind
direction
speed
MPH
gust
MPH
rain 1hr
in
rain 24hr
in
rain mn
in
humidity
%
barometer
mb
20260508151556 0 0 0.0 2.0 0.00 0.01 0.00 1018.4
20260508150110 0 0 1.0 3.0 0.00 0.01 0.00 1018.3
20260508144602 0 0 0.0 2.0 0.00 0.01 0.00 1018.3
20260508143126 0 0 0.0 2.0 0.00 0.01 0.00 1018.2
20260508141606 0 0 0.0 0.0 0.00 0.01 0.00 1018.2
20260508140121 0 0 0.0 2.0 0.00 0.01 0.00 1018.4
20260508134600 0 0 0.0 0.0 0.00 0.01 0.00 1018.2
20260508133107 0 0 0.0 0.0 0.00 0.01 0.00 1018.0
20260508131602 0 0.0 0.0 0.00 0.01 0.00 1017.9
20260508124558 0 0.0 0.0 0.00 0.01 0.00 1018.0
20260508123058 0 0.0 0.0 0.00 0.01 0.00 1018.0
20260508121559 0 0.0 0.0 0.00 0.01 0.00 1018.0
20260508120105 0 0.0 0.0 0.00 0.01 0.00 1017.9
20260508114556 0 0.0 0.0 0.00 0.01 0.00 1017.7
20260508113058 0 0.0 0.0 0.00 0.01 0.00 1017.5
20260508111605 0 0.0 0.0 0.00 0.01 0.00 1017.3
20260508110108 0 0.0 0.0 0.00 0.01 0.00 1017.3
20260508104607 0 0.0 0.0 0.00 0.01 0.00 1017.1
20260508103101 0 0.0 0.0 0.00 0.01 0.00 1017.0
20260508101557 0 0.0 0.0 0.00 0.01 0.00 1017.0
20260508100103 0 0.0 0.0 0.00 0.01 0.00 1016.9
20260508094559 0 0.0 0.0 0.00 0.01 0.00 1016.8
20260508093058 0 0.0 0.0 0.00 0.01 0.00 1016.7
20260508091609 0 0.0 0.0 0.00 0.01 0.00 1016.7
20260508090104 0 0.0 0.0 0.00 0.01 0.00 1016.5
20260508084613 0 0.0 0.0 0.00 0.01 0.00 1016.6
20260508083108 0 0.0 0.0 0.00 0.01 0.00 1016.5
20260508081556 0 0.0 0.0 0.00 0.01 0.00 1016.4
20260508080110 0 0.0 0.0 0.00 0.01 0.00 1016.4
20260508074609 0 0.0 0.0 0.00 0.01 0.00 1016.3
20260508073101 0 0.0 0.0 0.00 0.01 0.00 1016.2
20260508071558 0 0.0 0.0 0.00 0.01 0.00 1016.1
20260508064600 0 0.0 0.0 0.00 0.01 0.00 1016.2
20260508063057 0 0.0 0.0 0.00 0.01 0.00 1016.0
20260508061558 0 0 0.0 0.0 0.00 0.01 0.00 1016.0
20260508060100 0 0 0.0 0.0 0.00 0.01 0.00 1016.2
20260508054600 0 0 0.0 0.0 0.00 0.01 0.00 1016.3
20260508053105 0 0 0.0 0.0 0.00 0.01 0.00 1016.5
20260508051610 0 0 0.0 0.0 0.00 0.01 0.00 1016.3
20260508050116 0 0 0.0 0.0 0.00 0.01 0.00 1016.1
20260508044558 0 0 0.0 0.0 0.00 0.01 0.00 1015.9
20260508043104 0 0 0.0 0.0 0.00 0.01 0.00 1016.0
20260508041602 0 0 0.0 0.0 0.00 0.01 0.00 1015.6
20260508034556 0 0 0.0 0.0 0.00 0.01 0.01 1015.7
20260508033056 0 0 0.0 0.0 0.00 0.01 0.01 1015.5
20260508031559 0 0 0.0 0.0 0.00 0.01 0.01 1015.5
20260508030100 0 0 0.0 0.0 0.00 0.01 0.01 1015.3
20260508024558 0 0 0.0 0.0 0.00 0.21 0.01 1015.2
20260508023100 0 0 0.0 0.0 0.00 0.21 0.01 1015.2
20260508021558 0 0 0.0 0.0 0.00 0.21 0.01 1015.0
20260508020101 0 0 0.0 0.0 0.00 0.21 0.01 1014.7
20260508014557 0 0 0.0 0.0 0.00 0.31 0.01 1014.5
20260508013058 0 0 0.0 0.0 0.00 0.31 0.01 1014.3
20260508011557 0 0 0.0 0.0 0.00 0.31 0.01 1014.0
20260508010100 0 0 0.0 0.0 0.00 0.31 0.01 1013.9
20260508004602 0 0 0.0 0.0 0.00 0.35 0.01 1013.6
20260508003058 0 0 0.0 0.0 0.00 0.35 0.01 1013.4
20260508001600 0 0 0.0 0.0 0.00 0.35 0.01 1013.4
20260507234602 0 0 0.0 0.0 0.00 0.35 0.01 1013.6
20260507233117 0 0 0.0 1.0 0.00 0.35 0.01 1013.5
20260507231605 0 255 0.0 1.0 0.00 0.35 0.01 1013.5
20260507230058 0 257 0.0 1.0 0.00 0.35 0.01 1013.5
20260507224559 0 226 0.0 1.0 0.00 0.35 0.01 1013.4
20260507223113 0 0 0.0 1.0 0.00 0.35 0.01 1013.1
20260507221558 0 0 0.0 1.0 0.00 0.35 0.01 1013.1
20260507220058 0 244 0.0 2.0 0.00 0.35 0.01 1013.0
20260507214604 0 208 0.0 3.0 0.00 0.35 0.01 1012.9
20260507213058 0 0 1.0 4.0 0.00 0.35 0.01 1012.8
20260507211603 0 167 0.0 2.0 0.00 0.35 0.01 1012.7
20260507210114 0 162 0.0 1.0 0.00 0.35 0.01 1012.5
20260507204601 0 0 0.0 0.0 0.00 0.35 0.01 1012.6
20260507203106 0 0 0.0 0.0 0.00 0.35 0.01 1012.8
20260507201600 0 0 0.0 1.0 0.00 0.35 0.01 1012.9
20260507200105 0 0 0.0 1.0 0.00 0.35 0.01 1012.8
20260507194600 0 0 0.0 0.0 0.00 0.35 0.01 1012.8
20260507193055 0 0 0.0 0.0 0.00 0.35 0.01 1012.8
20260507191600 0 0 0.0 0.0 0.00 0.35 0.01 1013.1
20260507190107 0 224 0.0 1.0 0.00 0.35 0.01 1013.2
20260507184557 0 0 0.0 2.0 0.00 0.35 0.01 1013.2
20260507183114 0 0 0.0 0.0 0.00 0.35 0.01 1013.2
20260507181601 0 0 0.0 1.0 0.00 0.35 0.01 1013.1
20260507180059 0 0 0.0 1.0 0.00 0.35 0.01 1013.0
20260507174603 0 254 0.0 1.0 0.00 0.35 0.01 1012.9
20260507173115 0 248 0.0 1.0 0.00 0.35 0.01 1012.6
20260507171559 0 0 0.0 1.0 0.00 0.35 0.01 1012.8
20260507170059 0 0 0.0 2.0 0.00 0.35 0.01 1012.5
20260507164633 0 0 0.0 1.0 0.00 0.35 0.01 1012.5
20260507163101 0 0 0.0 1.0 0.00 0.35 0.01 1012.8
20260507161603 0 0 0.0 2.0 0.00 0.35 0.01 1012.9
20260507160105 0 208 1.0 3.0 0.01 0.35 0.01 1012.7
20260507154601 0 82 0.0 3.0 0.01 0.35 0.01 1012.5
20260507153107 0 110 1.0 3.0 0.01 0.35 0.01 1012.6
20260507151606 0 0 0.0 3.0 0.01 0.35 0.01 1012.7